{"data":{"norad_id":52371,"epoch":"2026-09-19T23:13:21.084096Z","epoch_age_seconds":105570,"freshness":"FRESH","line1":"1 52371U 22045AS  26262.96760514  .00000249  00000+0  19786-4 0  9996","line2":"2 52371  53.1626  24.2415 0001135  77.6894 282.4234 15.31703000245413","mean_motion":15.31703,"eccentricity":0.0001135,"inclination_deg":53.1626,"raan_deg":24.2415,"arg_perigee_deg":77.6894,"mean_anomaly_deg":282.4234,"bstar":1.9786e-5,"rev_number":24541,"period_min":94.01300382646,"perigee_km":469.9537058724,"apogee_km":471.5083989203,"semimajor_km":6848.8680523964,"source":"CELESTRAK","updated_at":"2026-09-20T09:00:40.028914Z"}}